Location: Bijele Vode
(45.2833°N, 16.2000°E)
Time: 11:14:32
(UTC+00:00)

Cosmos 1125 Rocket - Visible Passes

Search period start: 20 June 2021 00:00
Search period end: 30 June 2021 00:00
Orbit: 758 x 779 km, 74.0° (Epoch: 19 June)

Date Brightness Start Highest point End Pass type
(mag) Time Alt. Az. Time Alt. Az. Time Alt. Az.
20 Jun 4.0 01:07:25 10° NNW 01:12:39 63° ENE 01:17:53 10° SSE visible
21 Jun 4.8 00:30:42 10° N 00:35:38 39° ENE 00:40:34 10° SE visible
21 Jun 4.4 02:13:03 10° NW 02:17:33 30° W 02:22:04 10° SSW visible
21 Jun 5.5 23:54:09 10° N 23:58:31 26° NE 00:02:53 10° ESE visible
22 Jun 3.8 01:35:47 10° NNW 01:40:51 49° WSW 01:45:54 10° S visible
22 Jun 6.0 23:17:52 10° N 23:21:17 17° NE 23:24:41 10° E visible
23 Jun 3.4 00:58:45 10° NNW 01:04:02 81° WSW 01:09:05 11° SSE visible
23 Jun 6.3 22:42:19 10° NNE 22:43:55 11° NE 22:45:31 10° ENE visible
24 Jun 3.9 00:21:53 10° NNW 00:27:07 63° ENE 00:31:52 13° SSE visible
24 Jun 5.0 02:05:09 10° NW 02:08:39 18° W 02:12:05 10° SW visible
24 Jun 4.7 23:45:10 10° N 23:50:06 39° ENE 23:54:49 11° SE visible
25 Jun 4.4 01:27:29 10° NW 01:32:02 30° W 01:35:02 18° SSW visible
25 Jun 5.4 23:08:37 10° N 23:12:58 25° NE 23:17:19 10° ESE visible
26 Jun 3.8 00:50:14 10° NNW 00:55:19 50° WSW 00:58:05 25° SSW visible
26 Jun 5.9 22:32:21 10° N 22:35:44 17° NE 22:39:07 10° E visible
27 Jun 3.4 00:13:12 10° NNW 00:18:30 82° WSW 00:21:14 30° SSE visible
27 Jun 5.5 01:58:36 10° W 01:59:40 11° W 02:00:43 10° WSW visible
27 Jun 6.2 21:56:50 10° NNE 21:58:22 11° NE 21:59:55 10° ENE visible
27 Jun 3.9 23:36:21 10° NNW 23:41:35 62° ENE 23:44:27 27° SE visible
28 Jun 5.0 01:19:35 10° NW 01:23:08 19° W 01:24:40 16° WSW visible
28 Jun 4.6 22:59:38 10° N 23:04:34 38° ENE 23:07:43 20° ESE visible
29 Jun 4.5 00:41:56 10° NW 00:46:30 30° W 00:47:57 26° SW visible
29 Jun 5.3 22:23:06 10° N 22:27:26 25° NE 22:31:02 13° ESE visible
